Regional Weather Roundup
Issued by NWS Kansas City/Pleasant Hill, MO

Home | Current Version | Previous Version | Text Only | Print | Product List | Glossary On
Versions: 1 2 3 4 5 6 7 8 9 10 11 12 13 14 15 16 17 18 19 20 21 22 23 24 25 26 27 28 29 30 31 32 33 34 35 36 37 38 39 40 41 42 43 44 45 46 47 48 49 50
000
ASUS43 KEAX 172010
RWREAX

WEATHER ROUNDUP FOR EASTERN KANSAS AND NORTHWEST MISSOURI
NATIONAL WEATHER SERVICE KANSAS CITY/PLEASANT HILL MO
200 PM CST SUN DEC 17 2017

KSZ040-057-103>105-MOZ028-029-037-043-172100-
...KANSAS CITY METROPOLITAN AREA...

CITY           SKY/WX    TMP DP  RH WIND       PRES   REMARKS
K.C. INTL      CLOUDY    46  43  89 W5        29.96F
K.C. DOWNTOWN  CLOUDY    48  42  80 W6        29.97S
LEES SUMMIT    CLOUDY    47  44  90 SW7       29.97F
OLATHE - IXD   CLOUDY    47  44  90 SW7       29.98R
OLATHE - OJC   CLOUDY    46  43  89 SW7       29.98R
LAWRENCE       CLOUDY    50  44  80 CALM      29.97R

$$

MOZ001>008-011>017-020>025-030>033-038>040-044>046-053-054-172100-
...NORTHERN AND CENTRAL MISSOURI...

CITY           SKY/WX    TMP DP  RH WIND       PRES   REMARKS
ST. JOSEPH     CLOUDY    48  45  89 NW6       29.96F
MOSBY          CLOUDY    46  43  87 W3        29.97S
WARRENSBURG    CLOUDY    45  43  93 S7        29.98F
WHITEMAN AFB   CLOUDY    44  43  94 SW7       29.94F
CLINTON        CLOUDY    45  45 100 SW7       30.01S FOG
SEDALIA        CLOUDY    46  46 100 SW8       30.00F FOG
WARSAW         NOT AVBL
CHILLICOTHE      N/A     46  44  93 S5        29.98F
KIRKSVILLE     CLOUDY    45  45 100 SW10      29.97S

$$

MOZ041-047>049-056>058-063>065-088>090-097-172100-
...EASTERN AND SOUTHERN MISSOURI...

CITY           SKY/WX    TMP DP  RH WIND       PRES   REMARKS
ST. LOUIS INTL PTSUNNY   54  37  52 SW9       30.00F
SPIRIT OF STL  PTSUNNY   54  40  59 SW8       30.00F
COLUMBIA       CLOUDY    45  44  97 S7        29.99F FOG
JEFFERSON CITY CLOUDY    46  42  86 CALM      30.01F
ROLLA          CLOUDY    47  42  83 S8        30.00F
OSAGE BEACH    CLOUDY    47  44  90 SW6       30.01F
SPRINGFIELD    CLOUDY    47  44  90 W8        30.01S FOG
BRANSON        FOG       45  45 100 CALM      30.04F VSB 1/2
JOPLIN         CLOUDY    46  44  93 W8        30.03S
WEST PLAINS    CLOUDY    45  44  97 SW3       30.04F FOG

$$

IAZ060-094-KSZ022-034>040-054-083-096-NEZ052-066-093-172100-
...KANSAS...SOUTHEAST NEBRASKA AND IOWA...

CITY           SKY/WX    TMP DP  RH WIND       PRES   REMARKS
TOPEKA         PTSUNNY   50  44  80 SW3       29.97R
MANHATTAN      MOSUNNY   52  41  66 W6        29.95S
EMPORIA        CLOUDY    53  41  63 VRB3      29.96F
CHANUTE        CLOUDY    46  44  93 S8        30.01F
WICHITA        CLOUDY    47  40  76 S9        29.98S
OMAHA          PTSUNNY   36  26  67 N9        29.97F WCI  29
LINCOLN        MOSUNNY   42  30  62 N8        29.97F
FALLS CITY     CLOUDY    42  38  85 NW6       29.95F
LAMONI         CLOUDY    44  42  93 NW7       29.93F FOG
DES MOINES     PTSUNNY   38  33  82 CALM      29.95F

$$




USA.gov is the U.S. government's official web portal to all federal, state and local government web resources and services.